Regional Weather Roundup
Issued by NWS

Home | Current Version | Previous Version | Graphics & Text | Print | Product List | Glossary On
Versions: 1 2 3 4 5 6 7 8 9 10 11 12 13 14 15 16 17 18 19 20 21 22 23 24 25 26 27 28 29 30 31 32 33 34 35 36 37 38 39 40 41 42 43 44 45 46 47 48 49 50
592
ASUS45 KTFX 232110
RWRMT
MONTANA REGIONAL WEATHER ROUNDUP
NATIONAL WEATHER SERVICE GREAT FALLS MT
300 PM MDT MON APR 23 2018

NOTE: "FAIR" INDICATES FEW OR NO CLOUDS BELOW 12000 FEET WITH NO
SIGNIFICANT WEATHER AND/OR OBSTRUCTIONS TO VISIBILITY.

MTZ001>007-043-232200-
WEST OF THE DIVIDE

CITY           SKY/WX    TMP DP  RH WIND       PRES   REMARKS
KALISPELL      FAIR      59  19  21 NE9       30.37S
MISSOULA       CLOUDY    55  25  31 SE20      30.37R
BUTTE          CLOUDY    38  28  67 SE7       30.37R
MULLAN PASS    PTSUNNY   45  18  34 VRB3      30.35R
ANACONDA         N/A     39  25  56 N10       30.39R
DEER LODGE       N/A     43  27  52 NE7       30.42S
HAMILTON         N/A     50  25  37 MISG      30.36R
RONAN            N/A     55  23  28 VRB3      30.38S
$$

MTZ008-052>055-232200-
SOUTHWEST MONTANA

CITY           SKY/WX    TMP DP  RH WIND       PRES   REMARKS
BOZEMAN        LGT RAIN  38  34  85 S10       30.39R FOG     WCI  31
DILLON         CLOUDY    39  31  72 NE23      30.31R WCI  28
ENNIS          PTSUNNY   39  36  87 NW23G35   30.33R WCI  29
W YELLOWSTONE  FAIR      36  32  87 N10       30.24  WCI  28
THREE FORKS      N/A     41  35  79 N13       30.34R
TWIN BRIDGES     N/A     44  31  60 N29       30.26R
$$

MTZ009-010-012-014-046-048-049-054-232200-
EAST SLOPES AND CENTRAL MONTANA

CITY           SKY/WX    TMP DP  RH WIND       PRES   REMARKS
CUT BANK       FAIR      51  18  27 MISG      30.41S
GREAT FALLS    FAIR      49  25  39 NE13G20   30.41R
MALMSTROM AFB  PTSUNNY   48  27  44 NE8       30.42R
HELENA         CLOUDY    45  30  55 E7        30.41S
CHOTEAU          N/A     52  21  30 NE8G17    30.43R
POWER          FAIR      49  22  33 NE12G17   30.40S
WHITE SULPHUR    N/A     34  32  93 NW10      30.38R FOG     WCI  26
$$

MTZ011-013-016-021-045-047-050-051-232200-
NORTH CENTRAL MONTANA

CITY           SKY/WX    TMP DP  RH WIND       PRES   REMARKS
HAVRE          FAIR      56  22  26 N13G18    30.39S
LEWISTOWN      CLOUDY    40  36  86 W8        30.39R
N BAR RANCH    MIX PCPN  34  32  93 NW7       30.40R WCI  28
$$

MTZ017>020-022>027-061-062-232200-
NORTHEAST MONTANA

CITY           SKY/WX    TMP DP  RH WIND       PRES   REMARKS
GLASGOW        FAIR      51  22  31 N16       30.35S
GLENDIVE       RAIN      38  36  92 N15       30.32R WCI  29
JORDAN           N/A     43  38  82 N10       30.35S
MALTA          SUNNY     50  23  34 NE10G17   30.37S
SIDNEY         LGT RAIN  43  37  79 N14       30.32R
WOLF POINT     CLOUDY    52  29  41 NE12G21   30.34R
PLENTYWOOD       N/A     50  21  32 MISG      30.31S
POPLAR           N/A     48  28  46 N14       30.33S
$$

MTZ028>42-056>058-232200-
SOUTHCENTRAL AND SOUTHEAST MONTANA

CITY           SKY/WX    TMP DP  RH WIND       PRES   REMARKS
BAKER          CLOUDY    46  32  58 N30G37    30.21S
BILLINGS       FLURRIES  34  34 100 NW7       30.40R WCI  28
LIVINGSTON     LGT SNOW  36  33  89 E16       30.38R FOG     WCI  26
MILES CITY     RAIN      37  37 100 N15       30.31R FOG     WCI  28
BIG TIMBER     PTSUNNY   34  32  93 CALM      30.42R FOG
FORSYTH          N/A     32  32 100 W8        30.36R WCI  25
LAUREL           N/A     37  36  93 N6        30.42R FOG
$$

REGIONAL REPORTS...DAKOTAS

CITY           SKY/WX    TMP DP  RH WIND       PRES   REMARKS
WILLISTON      CLOUDY    50  32  50 N20       30.30S
MINOT          PTSUNNY   54  34  46 NW17      30.23F
DICKINSON      CLOUDY    52  31  44 NE20      30.19S
BEACH          CLOUDY    45  32  61 N21       30.29R
CROSBY         FAIR      52  28  40 N17       30.30S
TIOGA          FAIR      48  34  57 N17G24    30.29S
BISMARCK       PTSUNNY   63  31  30 NE16G25   30.16F
GRAND FORKS    FAIR      62  37  39 N12G23    30.17F
FARGO          FAIR      66  39  37 N10G17    30.15F
BUFFALO SD       N/A     62  38  40 NE28G35   29.99F
RAPID CITY     FAIR      66  41  40 E13       30.00F
$$

REGIONAL REPORTS...WYOMING/IDAHO/WASHINGTON

CITY           SKY/WX    TMP DP  RH WIND       PRES   REMARKS
GILLETTE       LGT SNOW  34  33  96 NW25G35   30.16R FOG     WCI  21
SHERIDAN       LGT SNOW  35  33  92 NW25G32   30.30R FOG     WCI  23
BUFFALO WY     CLOUDY    35  31  85 N29G41    30.21R WCI  22
CODY           CLOUDY    36  30  79 N26G35    30.32R WCI  24
YELLOWSTONE LA   N/A     34  28  79 VRB3      30.25R
IDAHO FALLS    CLOUDY    43  38  82 S5        30.25R
SALMON         CLOUDY    51  27  39 N8        30.28R
BOISE          FAIR      63  29  27 NW18G26   30.21S
SPOKANE        FAIR      61  26  26 N8G15     30.35S
$$

REGIONAL REPORTS...ALBERTA

CITY           SKY/WX    TMP DP  RH WIND       PRES   REMARKS
CALGARY        SUNNY     54  25  32 S15G22    30.35F
EDMONTON       SUNNY     55  19  24 W10       30.33F
FORT MCMURRAY  SUNNY     57  21  24 W12G21    30.25S
HIGH LEVEL     MOSUNNY   52  19  28 SE12      30.14F
LETHBRIDGE     MOSUNNY   54  21  28 SW7       30.40F
LLOYDMINSTER   MOSUNNY   54  23  30 NW14G22   30.32F
MEDICINE HAT   MOSUNNY   57  21  24 NW13G20   30.39F
MILK RIVER       N/A     54  25  32 NE5         N/A
PEACE RIVER    MOSUNNY   46  27  46 SW13      30.23F
PINCHER CREEK  SUNNY     50  23  34 SE7G17    30.39F
$$

REGIONAL REPORTS...SASKATCHEWAN

CITY           SKY/WX    TMP DP  RH WIND       PRES   REMARKS
CYPRESS HILLS    N/A     46  16  29 NW8         N/A
ESTEVAN        PTSUNNY   52  23  32 N17       30.28S
MOOSE JAW        N/A     55  18  22 N17G25      N/A
PRINCE ALBERT  MOSUNNY   52  23  32 NW21G26   30.31S
REGINA         PTSUNNY   54  19  26 N23G35    30.32S
ROCKGLEN         N/A     48  18  29 N13G21      N/A
SASKATOON      MOSUNNY   54  19  26 NW20G26   30.33F
SWIFT CURRENT  PTSUNNY   52  19  28 NW15G21   30.35F
VAL MARIE        N/A     52  21  30 N15G23      N/A
$$




USA.gov is the U.S. government's official web portal to all federal, state and local government web resources and services.